Overview Statistics Trail Chart Weather Telemetry Raw packets
 

This is the latest recevied weather packets stored in our database for station/object K3RUP-1. If no packets are shown the sender has not sent any weather packets the latest 10 day(s).

<< 33 34 35 36 37 38 39 >>
Time Temp. Humidity Pressure Rain* Wind** Luminosity Snow
1788468006 30.56° C 72% 1012.9 hPa 0 mm - 53 W/m² -
1788467702 30.56° C 71% 1012.7 hPa 0 mm - 76 W/m² -
1788467400 30.56° C 72% 1012.8 hPa 0 mm - 50 W/m² -
1788467097 30.56° C 73% 1012.8 hPa 0 mm - 65 W/m² -
1788466791 30.56° C 74% 1013 hPa 0 mm - 93 W/m² -
1788466486 30.56° C 72% 1013.1 hPa 0 mm - 98 W/m² -
1788466185 30° C 73% 1013.2 hPa 0 mm - 91 W/m² -
1788465881 30.56° C 73% 1013.4 hPa 0 mm - 93 W/m² -
1788465575 30° C 70% 1013.4 hPa 0 mm - 106 W/m² -
1788465272 30° C 72% 1013.3 hPa 0 mm - 152 W/m² -
1788464966 30° C 75% 1013.5 hPa 0 mm - 121 W/m² -
1788464662 30.56° C 71% 1013.6 hPa 0 mm - 83 W/m² -
1788464357 30.56° C 68% 1013.8 hPa 0 mm - 106 W/m² -
1788464054 30.56° C 70% 1013.8 hPa 0 mm - 139 W/m² -
1788463748 30.56° C 71% 1013.8 hPa 0 mm - 111 W/m² -
1788463444 30° C 72% 1013.9 hPa 0 mm - 243 W/m² -
1788463141 30° C 72% 1014 hPa 0 mm - 207 W/m² -
1788462836 30.56° C 75% 1014.1 hPa 0 mm - 216 W/m² -
1788462535 30.56° C 72% 1013.9 hPa 0 mm - 217 W/m² -
1788462230 30.56° C 73% 1014 hPa 0 mm - 275 W/m² -
1788461929 30.56° C 70% 1013.6 hPa 0 mm - 237 W/m² -
1788461624 31.11° C 70% 1013.9 hPa 0 mm - 757 W/m² -
1788461320 31.67° C 72% 1013.9 hPa 0 mm - 668 W/m² -
1788461017 30.56° C 71% 1014.1 hPa 0 mm - 606 W/m² -
1788460712 30.56° C 73% 1014.2 hPa 0 mm - 613 W/m² -

* Rain latest hour (hover to see other rain measurements)
** Current wind speed in m/s (hover to see current wind gust speed)